Weather History for Waukegan, IL

Change the Weather History Date:

Wednesday, December 4, 2013

  Actual Average Record
Temperature  
Mean Temperature 47 °F -  
Max Temperature 53 °F 37 °F 61 °F (2001)
Min Temperature 40 °F 24 °F 2 °F (2002)
Degree Days  
Heating Degree Days 18 35  
Month to date heating degree days 111 136  
Since 1 July heating degree days 1623 1521  
Cooling Degree Days 0 0  
Month to date cooling degree days 0 0  
Year to date cooling degree days 590 564  
Moisture  
Dew Point 44 °F    
Average Humidity 91    
Maximum Humidity 100    
Minimum Humidity 82    
Precipitation  
Precipitation 0.02 in 0.08 in 0.63 in (1999)
Month to date precipitation 0.18 0.34  
Year to date precipitation 28.36 33.93  
Sea Level Pressure  
Sea Level Pressure 29.63 in    
Wind  
Wind Speed 9 mph (SSE)    
Max Wind Speed 28 mph    
Max Gust Speed 38 mph    
Visibility 2 miles    
Events Fog , Rain    
T = Trace of Precipitation, MM = Missing Value Source: NWS Daily Summary

Daily Weather History Graph

Daily Weather History Graph

Search for Another Location

Airport:

Trip Planner

Search our weather history database for the weather conditions in past years. The results will help you decide how hot, cold, wet, or windy it might be!

Date:

Astronomy

Dec. 04, 2013 Rise Set
Actual Time 7:04 AM CST 4:18 PM CST
Civil Twilight 6:32 AM CST 4:50 PM CST
Nautical Twilight 5:57 AM CST 5:25 PM CST
Astronomical Twilight 5:23 AM CST 5:59 PM CST
Moon 8:31 AM CST (12/4) 6:29 PM CST (12/4)
Length of Visible Light 10h 17m
Length of Day
9h 14m
Waxing Crescent, 4% of the Moon is Illuminated
Dec 4
Waxing Crescent
Dec 9
First Quarter
Dec 17
Full
Dec 25
Last Quarter
Jan 1
New

Hourly Weather History & Observations

Time (CST) Temp. Windchill Dew Point Humidity Pressure Visibility Wind Dir Wind Speed Gust Speed Precip Events Conditions
12:25 AM 42.8 °F 41.1 °F 42.8 °F 100% 29.72 in 0.5 mi SE 3.5 mph - N/A Fog Fog
12:52 AM 43.0 °F 41.3 °F 43.0 °F 100% 29.75 in 0.5 mi SE 3.5 mph - N/A Fog Fog
1:27 AM 42.8 °F - 42.8 °F 100% 29.72 in 0.2 mi Calm Calm - N/A Fog Fog
1:52 AM 43.0 °F - 43.0 °F 100% 29.75 in 0.2 mi Calm Calm - N/A Fog Fog
2:10 AM 42.8 °F - 42.8 °F 100% 29.73 in 0.5 mi Calm Calm - N/A Fog Fog
2:20 AM 42.8 °F 41.1 °F 42.8 °F 100% 29.73 in 0.2 mi East 3.5 mph - N/A Fog Fog
2:41 AM 42.8 °F - 42.8 °F 100% 29.74 in 0.2 mi Calm Calm - N/A Fog Fog
2:52 AM 42.1 °F - 42.1 °F 100% 29.76 in 0.2 mi Calm Calm - N/A Fog Fog
3:37 AM 42.8 °F 39.3 °F 42.8 °F 100% 29.72 in 0.2 mi ESE 5.8 mph - N/A Fog Fog
3:52 AM 43.0 °F 41.3 °F 43.0 °F 100% 29.74 in 0.2 mi SE 3.5 mph - N/A Fog Fog
4:25 AM 42.8 °F 40.1 °F 42.8 °F 100% 29.72 in 0.5 mi SE 4.6 mph - N/A Fog Fog
4:52 AM 43.0 °F 40.3 °F 43.0 °F 100% 29.73 in 0.5 mi ESE 4.6 mph - N/A Fog Fog
5:15 AM 42.8 °F 38.0 °F 42.8 °F 100% 29.71 in 0.2 mi SE 8.1 mph - N/A Fog Fog
5:37 AM 44.6 °F 41.4 °F 44.6 °F 100% 29.71 in 0.5 mi SE 5.8 mph - N/A Fog Fog
5:52 AM 44.1 °F 39.5 °F 44.1 °F 100% 29.73 in 0.8 mi SE 8.1 mph - N/A   Mist
6:02 AM 44.6 °F 39.7 °F 44.6 °F 100% 29.71 in 1.2 mi SE 9.2 mph - N/A   Overcast
6:52 AM 44.1 °F 38.1 °F 44.1 °F 100% 29.72 in 1.0 mi SE 11.5 mph - N/A   Overcast
7:28 AM 42.8 °F 35.8 °F 42.8 °F 100% 29.69 in 0.2 mi SE 13.8 mph 19.6 mph N/A Fog Fog
7:52 AM 43.0 °F 36.8 °F 43.0 °F 100% 29.71 in 0.2 mi SE 11.5 mph - N/A Fog Fog
8:33 AM 42.8 °F 37.0 °F 42.8 °F 100% 29.69 in 0.2 mi SSE 10.4 mph - N/A Fog Fog
8:52 AM 43.0 °F 37.2 °F 43.0 °F 100% 29.71 in 0.2 mi SE 10.4 mph - N/A Fog Fog
9:02 AM 42.8 °F 37.0 °F 42.8 °F 100% 29.69 in 0.2 mi SSE 10.4 mph - N/A Fog Fog
9:52 AM 43.0 °F 37.7 °F 43.0 °F 100% 29.71 in 0.2 mi SE 9.2 mph - N/A Fog Fog
10:28 AM 42.8 °F 38.0 °F 42.8 °F 100% 29.68 in 0.2 mi SE 8.1 mph - N/A Fog Fog
10:52 AM 43.0 °F 37.7 °F 43.0 °F 100% 29.68 in 0.2 mi SE 9.2 mph - 0.00 in Fog Fog
11:20 AM 44.6 °F 40.7 °F 44.6 °F 100% 29.64 in 0.2 mi SE 6.9 mph - N/A Fog Fog
11:52 AM 44.1 °F 38.6 °F 44.1 °F 100% 29.64 in 0.2 mi SE 10.4 mph - N/A Fog Fog
12:52 PM 43.0 °F 38.8 °F 43.0 °F 100% 29.59 in 0.1 mi SE 6.9 mph - N/A Fog Fog
1:52 PM 44.1 °F 40.8 °F 44.1 °F 100% 29.56 in 0.1 mi SE 5.8 mph - N/A Fog Fog
2:14 PM 44.6 °F 40.7 °F 44.6 °F 100% 29.55 in 0.1 mi SE 6.9 mph - 0.01 in Fog Fog
2:52 PM 45.0 °F 40.1 °F 45.0 °F 100% 29.54 in 0.2 mi SE 9.2 mph - 0.01 in Fog Fog
3:52 PM 45.0 °F 40.6 °F 45.0 °F 100% 29.52 in 0.2 mi SE 8.1 mph - N/A Fog Fog
3:59 PM 44.6 °F 40.2 °F 44.6 °F 100% 29.51 in 0.2 mi SE 8.1 mph - N/A Fog Fog
4:22 PM 46.4 °F 42.4 °F 46.4 °F 100% 29.51 in 0.2 mi SSE 8.1 mph - N/A Fog Fog
4:52 PM 46.0 °F 42.5 °F 46.0 °F 100% 29.52 in 0.2 mi SSE 6.9 mph - N/A Fog Fog
5:02 PM 46.4 °F 43.5 °F 46.4 °F 100% 29.51 in 0.5 mi SSE 5.8 mph - 0.01 in Fog Fog
5:26 PM 48.2 °F - 48.2 °F 100% 29.49 in 1.0 mi SSE 6.9 mph - 0.01 in   Mist
5:41 PM 48.2 °F - 48.2 °F 100% 29.50 in 2.0 mi South 6.9 mph - 0.01 in Rain Light Rain
5:52 PM 48.9 °F - 48.9 °F 100% 29.51 in 2.5 mi South 8.1 mph - 0.01 in   Overcast
6:04 PM 51.8 °F - 51.8 °F 100% 29.50 in 3.0 mi South 10.4 mph - N/A   Overcast
6:20 PM 51.8 °F - 51.8 °F 100% 29.50 in 5.0 mi South 16.1 mph 20.7 mph N/A   Overcast
6:52 PM 53.1 °F - 51.1 °F 93% 29.50 in 6.0 mi SSW 15.0 mph 25.3 mph 0.00 in   Mostly Cloudy
7:01 PM 53.6 °F - 51.8 °F 94% 29.50 in 5.0 mi SSW 16.1 mph - N/A   Scattered Clouds
7:52 PM 52.0 °F - 50.0 °F 93% 29.52 in 5.0 mi SSW 16.1 mph - N/A   Partly Cloudy
8:08 PM 51.8 °F - 50.0 °F 94% 29.51 in 5.0 mi SSW 16.1 mph - N/A   Mostly Cloudy
8:52 PM 53.1 °F - 50.0 °F 89% 29.52 in 6.0 mi SW 15.0 mph 23.0 mph N/A   Overcast
9:21 PM 50.0 °F - 46.4 °F 87% 29.54 in 6.0 mi SW 17.3 mph 29.9 mph N/A   Overcast
9:37 PM 48.2 °F - 42.8 °F 82% 29.55 in 10.0 mi SW 19.6 mph 34.5 mph N/A   Overcast
9:52 PM 46.0 °F 40.6 °F 41.0 °F 83% 29.58 in 10.0 mi SW 11.5 mph 27.6 mph N/A   Overcast
10:01 PM 46.4 °F 41.1 °F 39.2 °F 76% 29.55 in 10.0 mi WSW 11.5 mph 20.7 mph N/A   Overcast
10:52 PM 43.0 °F 37.2 °F 37.9 °F 82% 29.60 in 10.0 mi WSW 10.4 mph 20.7 mph N/A   Overcast
11:10 PM 42.8 °F 37.5 °F 37.4 °F 81% 29.60 in 10.0 mi WSW 9.2 mph 18.4 mph N/A   Overcast
11:18 PM 42.8 °F 38.0 °F 37.4 °F 81% 29.61 in 10.0 mi WSW 8.1 mph 19.6 mph N/A   Overcast
11:38 PM 41.0 °F 33.9 °F 37.4 °F 87% 29.62 in 10.0 mi WSW 12.7 mph 21.9 mph N/A   Overcast
11:52 PM 39.9 °F 33.9 °F 36.0 °F 86% 29.64 in 10.0 mi WSW 9.2 mph 25.3 mph N/A   Overcast